Regional Weather Roundup
Issued by NWS Glasgow, MT

Home | Current Version | Previous Version | Text Only | Print | Product List | Glossary On
Versions: 1 2 3 4 5 6 7 8 9 10 11 12 13 14 15 16 17 18 19 20 21 22 23 24 25 26 27 28 29 30 31 32 33 34 35 36 37 38 39 40 41 42 43 44 45 46 47 48 49 50
000
ASUS45 KGGW 172015
RWRGGW
HOURLY WEATHER ROUNDUP FOR NORTHEAST MONTANA
NATIONAL WEATHER SERVICE GLASGOW MONTANA
100 PM MST WED DEC 17 2014

NOTE: "FAIR" INDICATES FEW OR NO CLOUDS BELOW 12,000 FEET WITH NO
SIGNIFICANT WEATHER AND/OR OBSTRUCTIONS TO VISISBILITY.

NORTHEAST MONTANA


CITY           SKY/WX    TMP DP  RH WIND       PRES   REMARKS
GLASGOW        CLOUDY    22  16  78 E14       30.00F
PLENTYWOOD       N/A     18  16  92 S13         N/A
WOLF POINT     CLOUDY    22  16  78 SE7       30.07F
JORDAN           N/A     26  21  81 S10       29.96F
SIDNEY         CLOUDY    19  16  86 SE12      30.10F
GLENDIVE       CLOUDY    21  18  86 SE10      30.04F
MALTA            N/A     27  23  85 SE7         N/A

FORT PECK REPORTS


CITY           SKY/WX    TMP DP  RH WIND       PRES   REMARKS
FORT PECK        N/A     25  21  85 E13         N/A
THE PINES        N/A     25  21  85 S7          N/A

SOUTHEAST MONTANA


CITY           SKY/WX    TMP DP  RH WIND       PRES   REMARKS
BILLINGS       CLOUDY    31  24  75 SW15      29.92F
MILES CITY     CLOUDY    25  20  81 SE9       29.98F
BAKER          CLOUDY    19  18  95 SE15      30.02F
LIVINGSTON     CLOUDY    38  26  62 W9        29.89F

CENTRAL MONTANA


CITY           SKY/WX    TMP DP  RH WIND       PRES   REMARKS
HAVRE          CLOUDY    26  23  88 CALM      29.93F
LEWISTOWN      CLOUDY    35  31  85 CALM      29.88F
GREAT FALLS    CLOUDY    35  30  82 S10       29.85F
CUT BANK       FOG       20  19  96 CALM      29.85F VSB<1/4
HELENA         CLOUDY    32  26  78 CALM      29.92F
BUTTE          MOSUNNY   28  25  88 CALM      29.90F
BOZEMAN        CLOUDY    31  27  85 CALM      29.93F

WESTERN MONTANA


CITY           SKY/WX    TMP DP  RH WIND       PRES   REMARKS
MISSOULA       SUNNY     35  22  58 CALM      29.96F
KALISPELL      NOT AVBL

NORTH DAKOTA


CITY           SKY/WX    TMP DP  RH WIND       PRES   REMARKS
WILLISTON      CLOUDY    20  13  74 S14       30.11F
DICKINSON      LGT SNOW  19  14  81 SE10      30.06F
MINOT          PTSUNNY   16   9  74 SE8       30.19F
BISMARCK       MOSUNNY   19  10  68 SE10      30.22F

SOUTHERN SASKATCHEWAN


CITY           SKY/WX    TMP DP  RH WIND       PRES   REMARKS
REGINA         CLOUDY    18  14  86 S16       30.08F
MOOSE JAW      FLURRIES  19  16  86 SW10      30.06F
ESTEVAN        FLURRIES  18  12  79 SE13      30.13F
SWIFT CURRENT    N/A     19  19 100 MISG      29.91F



USA.gov is the U.S. government's official web portal to all federal, state and local government web resources and services.